Location: *
(40.7765°S, 106.5327°E)
Time: 12:29:24
(UTC+00:00)

USA 305 - Visible Passes

Search period start: 26 September 2022 00:00
Search period end: 06 October 2022 00:00
Orbit: 540 x 550 km, 54.0° (Epoch: 31 August)

Date Brightness Start Highest point End Pass type
(mag) Time Alt. Az. Time Alt. Az. Time Alt. Az.
26 Sep 5.4 12:18:27 10° SSW 12:20:31 13° S 12:22:35 10° SSE visible
26 Sep 5.7 13:58:16 10° SSW 13:59:14 14° SSW 13:59:14 14° SSW visible
27 Sep 5.4 12:11:24 10° SSW 12:13:26 13° S 12:15:27 10° SSE visible
27 Sep 5.5 13:50:54 10° SSW 13:52:14 16° SSW 13:52:14 16° SSW visible
28 Sep 5.3 12:04:17 10° SSW 12:06:20 13° S 12:08:23 10° SSE visible
28 Sep 5.2 13:43:30 10° SSW 13:45:12 19° S 13:45:12 19° S visible
29 Sep 5.3 11:57:03 10° SSW 11:59:12 14° S 12:01:22 10° SE visible
29 Sep 5.0 13:36:05 10° SSW 13:38:09 22° S 13:38:09 22° S visible
30 Sep 5.2 11:49:44 10° SSW 11:52:02 14° S 11:54:21 10° SE visible
30 Sep 4.6 13:28:39 10° SW 13:31:07 27° S 13:31:07 27° S visible
01 Oct 5.1 11:42:22 10° SSW 11:44:52 15° SSE 11:47:22 10° SE visible
01 Oct 4.2 13:21:12 10° SW 13:24:04 33° S 13:24:04 33° S visible
02 Oct 5.0 11:34:56 10° SSW 11:37:40 17° SSE 11:40:23 10° SE visible
02 Oct 3.7 13:13:46 10° SW 13:17:03 43° S 13:17:03 43° S visible
03 Oct 4.8 11:27:29 10° SSW 11:30:26 18° SSE 11:33:22 10° ESE visible
03 Oct 3.1 13:06:19 10° SW 13:10:03 60° S 13:10:03 60° S visible
04 Oct 2.7 12:58:52 10° SW 13:03:02 83° SE 13:03:05 83° SE visible
05 Oct 2.8 12:51:26 10° SW 12:55:36 76° NW 12:56:10 63° NNE visible
